Year,Month,Day,Hour,Minute,Value (Times are PST for temperature in C)
2015,07,18,00,00,16.90
2015,07,18,00,01,16.90
2015,07,18,00,02,16.90
2015,07,18,00,03,16.90
2015,07,18,00,04,16.90
2015,07,18,00,05,16.90
2015,07,18,00,06,17.00
2015,07,18,00,07,17.00
2015,07,18,00,08,17.00
2015,07,18,00,09,17.00
2015,07,18,00,10,17.00
2015,07,18,00,11,17.00
2015,07,18,00,12,16.90
2015,07,18,00,13,16.90
2015,07,18,00,14,16.90
2015,07,18,00,15,16.90
2015,07,18,00,16,16.90
2015,07,18,00,17,16.90
2015,07,18,00,18,16.90
2015,07,18,00,19,16.90
2015,07,18,00,20,16.90
2015,07,18,00,21,16.90
2015,07,18,00,22,17.00
2015,07,18,00,23,16.90
2015,07,18,00,24,16.90
2015,07,18,00,25,16.90
2015,07,18,00,26,16.90
2015,07,18,00,27,16.90
2015,07,18,00,28,16.90
2015,07,18,00,29,16.90
2015,07,18,00,30,16.90
2015,07,18,00,31,16.90
2015,07,18,00,32,17.00
2015,07,18,00,33,17.00
2015,07,18,00,34,17.00
2015,07,18,00,35,17.00
2015,07,18,00,36,17.10
2015,07,18,00,37,17.10
2015,07,18,00,38,17.10
2015,07,18,00,39,17.20
2015,07,18,00,40,17.20
2015,07,18,00,41,17.20
2015,07,18,00,42,17.20
2015,07,18,00,43,17.20
2015,07,18,00,44,17.30
2015,07,18,00,45,17.30
2015,07,18,00,46,17.30
2015,07,18,00,47,17.30
2015,07,18,00,48,17.30
2015,07,18,00,49,17.30
2015,07,18,00,50,17.20
2015,07,18,00,51,17.20
2015,07,18,00,52,17.20
2015,07,18,00,53,17.20
2015,07,18,00,54,17.20
2015,07,18,00,55,17.20
2015,07,18,00,56,17.20
2015,07,18,00,57,17.10
2015,07,18,00,58,17.10
2015,07,18,00,59,17.10
2015,07,18,01,00,17.10
2015,07,18,01,01,17.10
2015,07,18,01,02,17.00
2015,07,18,01,03,17.00
2015,07,18,01,04,17.00
2015,07,18,01,05,17.00
2015,07,18,01,06,16.90
2015,07,18,01,07,16.80
2015,07,18,01,08,16.70
2015,07,18,01,09,16.70
2015,07,18,01,10,16.70
2015,07,18,01,11,16.60
2015,07,18,01,12,16.60
2015,07,18,01,13,16.60
2015,07,18,01,14,16.60
2015,07,18,01,15,16.50
2015,07,18,01,16,16.40
2015,07,18,01,17,16.40
2015,07,18,01,18,16.40
2015,07,18,01,19,16.40
2015,07,18,01,20,16.30
2015,07,18,01,21,16.30
2015,07,18,01,22,16.10
2015,07,18,01,23,16.00
2015,07,18,01,24,15.80
2015,07,18,01,25,15.80
2015,07,18,01,26,15.70
2015,07,18,01,27,15.60
2015,07,18,01,28,15.50
2015,07,18,01,29,15.40
2015,07,18,01,30,15.30
2015,07,18,01,31,15.30
2015,07,18,01,32,15.30
2015,07,18,01,33,15.20
2015,07,18,01,34,15.20
2015,07,18,01,35,15.10
2015,07,18,01,36,15.10
2015,07,18,01,37,15.10
2015,07,18,01,38,15.00
2015,07,18,01,39,15.00
2015,07,18,01,40,15.00
2015,07,18,01,41,15.00
2015,07,18,01,42,15.00
2015,07,18,01,43,15.00
2015,07,18,01,44,15.00
2015,07,18,01,45,15.00
2015,07,18,01,46,15.00
2015,07,18,01,47,15.00
2015,07,18,01,48,15.10
2015,07,18,01,49,15.10
2015,07,18,01,50,15.10
2015,07,18,01,51,15.10
2015,07,18,01,52,15.10
2015,07,18,01,53,15.10
2015,07,18,01,54,15.00
2015,07,18,01,55,15.00
2015,07,18,01,56,15.00
2015,07,18,01,57,14.90
2015,07,18,01,58,14.90
2015,07,18,01,59,14.90
2015,07,18,02,00,14.90
2015,07,18,02,01,14.90
2015,07,18,02,02,14.90
2015,07,18,02,03,14.80
2015,07,18,02,04,14.80
2015,07,18,02,05,14.80
2015,07,18,02,06,14.80
2015,07,18,02,07,14.80
2015,07,18,02,08,14.80
2015,07,18,02,09,14.80
2015,07,18,02,10,14.80
2015,07,18,02,11,14.80
2015,07,18,02,12,14.80
2015,07,18,02,13,14.80
2015,07,18,02,14,14.80
2015,07,18,02,15,14.70
2015,07,18,02,16,14.70
2015,07,18,02,17,14.70
2015,07,18,02,18,14.70
2015,07,18,02,19,14.70
2015,07,18,02,20,14.60
2015,07,18,02,21,14.60
2015,07,18,02,22,14.60
2015,07,18,02,23,14.60
2015,07,18,02,24,14.60
2015,07,18,02,25,14.60
2015,07,18,02,26,14.60
2015,07,18,02,27,14.60
2015,07,18,02,28,14.60
2015,07,18,02,29,14.60
2015,07,18,02,30,14.60
2015,07,18,02,31,14.60
2015,07,18,02,32,14.60
2015,07,18,02,33,14.60
2015,07,18,02,34,14.60
2015,07,18,02,35,14.60
2015,07,18,02,36,14.60
2015,07,18,02,37,14.60
2015,07,18,02,38,14.60
2015,07,18,02,39,14.60
2015,07,18,02,40,14.60
2015,07,18,02,41,14.60
2015,07,18,02,42,14.60
2015,07,18,02,43,14.60
2015,07,18,02,44,14.60
2015,07,18,02,45,14.70
2015,07,18,02,46,14.70
2015,07,18,02,47,14.70
2015,07,18,02,48,14.70
2015,07,18,02,49,14.70
2015,07,18,02,50,14.70
2015,07,18,02,51,14.80
2015,07,18,02,52,14.80
2015,07,18,02,53,14.80
2015,07,18,02,54,14.80
2015,07,18,02,55,14.80
2015,07,18,02,56,14.80
2015,07,18,02,57,14.80
2015,07,18,02,58,14.80
2015,07,18,02,59,14.80
2015,07,18,03,00,14.80
2015,07,18,03,01,14.80
2015,07,18,03,02,14.90
2015,07,18,03,03,14.90
2015,07,18,03,04,14.90
2015,07,18,03,05,14.90
2015,07,18,03,06,15.00
2015,07,18,03,07,15.00
2015,07,18,03,08,15.00
2015,07,18,03,09,15.00
2015,07,18,03,10,15.00
2015,07,18,03,11,15.10
2015,07,18,03,12,15.10
2015,07,18,03,13,15.10
2015,07,18,03,14,15.10
2015,07,18,03,15,15.10
2015,07,18,03,16,15.20
2015,07,18,03,17,15.20
2015,07,18,03,18,15.20
2015,07,18,03,19,15.20
2015,07,18,03,20,15.20
2015,07,18,03,21,15.20
2015,07,18,03,22,15.30
2015,07,18,03,23,15.30
2015,07,18,03,24,15.30
2015,07,18,03,25,15.30
2015,07,18,03,26,15.30
2015,07,18,03,27,15.20
2015,07,18,03,28,15.20
2015,07,18,03,29,15.20
2015,07,18,03,30,15.30
2015,07,18,03,31,15.30
2015,07,18,03,32,15.30
2015,07,18,03,33,15.30
2015,07,18,03,34,15.30
2015,07,18,03,35,15.30
2015,07,18,03,36,15.30
2015,07,18,03,37,15.30
2015,07,18,03,38,15.30
2015,07,18,03,39,15.30
2015,07,18,03,40,15.30
2015,07,18,03,41,15.30
2015,07,18,03,42,15.30
2015,07,18,03,43,15.30
2015,07,18,03,44,15.30
2015,07,18,03,45,15.30
2015,07,18,03,46,15.30
2015,07,18,03,47,15.30
2015,07,18,03,48,15.30
2015,07,18,03,49,15.30
2015,07,18,03,50,15.30
2015,07,18,03,51,15.30
2015,07,18,03,52,15.30
2015,07,18,03,53,15.30
2015,07,18,03,54,15.30
2015,07,18,03,55,15.30
2015,07,18,03,56,15.30
2015,07,18,03,57,15.30
2015,07,18,03,58,15.30
2015,07,18,03,59,15.30
2015,07,18,04,00,15.30
2015,07,18,04,01,15.30
2015,07,18,04,02,15.30
2015,07,18,04,03,15.30
2015,07,18,04,04,15.30
2015,07,18,04,05,15.30
2015,07,18,04,06,15.30
2015,07,18,04,07,15.30
2015,07,18,04,08,15.30
2015,07,18,04,09,15.30
2015,07,18,04,10,15.30
2015,07,18,04,11,15.30
2015,07,18,04,12,15.30
2015,07,18,04,13,15.30
2015,07,18,04,14,15.30
2015,07,18,04,15,15.30
2015,07,18,04,16,15.30
2015,07,18,04,17,15.30
2015,07,18,04,18,15.30
2015,07,18,04,19,15.30
2015,07,18,04,20,15.30
2015,07,18,04,21,15.30
2015,07,18,04,22,15.30
2015,07,18,04,23,15.30
2015,07,18,04,24,15.30
2015,07,18,04,25,15.30
2015,07,18,04,26,15.30
2015,07,18,04,27,15.30
2015,07,18,04,28,15.30
2015,07,18,04,29,15.30
2015,07,18,04,30,15.30
2015,07,18,04,31,15.30
2015,07,18,04,32,15.20
2015,07,18,04,33,15.20
2015,07,18,04,34,15.20
2015,07,18,04,35,15.20
2015,07,18,04,36,15.20
2015,07,18,04,37,15.20
2015,07,18,04,38,15.20
2015,07,18,04,39,15.20
2015,07,18,04,40,15.20
2015,07,18,04,41,15.20
2015,07,18,04,42,15.20
2015,07,18,04,43,15.20
2015,07,18,04,44,15.20
2015,07,18,04,45,15.20
2015,07,18,04,46,15.20
2015,07,18,04,47,15.20
2015,07,18,04,48,15.20
2015,07,18,04,49,15.20
2015,07,18,04,50,15.20
2015,07,18,04,51,15.20
2015,07,18,04,52,15.20
2015,07,18,04,53,15.20
2015,07,18,04,54,15.30
2015,07,18,04,55,15.30
2015,07,18,04,56,15.30
2015,07,18,04,57,15.30
2015,07,18,04,58,15.30
2015,07,18,04,59,15.30
2015,07,18,05,00,15.30
2015,07,18,05,01,15.30
2015,07,18,05,02,15.30
2015,07,18,05,03,15.30
2015,07,18,05,04,15.30
2015,07,18,05,05,15.30
2015,07,18,05,06,15.30
2015,07,18,05,07,15.30
2015,07,18,05,08,15.30
2015,07,18,05,09,15.30
2015,07,18,05,10,15.30
2015,07,18,05,11,15.30
2015,07,18,05,12,15.30
2015,07,18,05,13,15.30
2015,07,18,05,14,15.30
2015,07,18,05,15,15.30
2015,07,18,05,16,15.30
2015,07,18,05,17,15.30
2015,07,18,05,18,15.30
2015,07,18,05,19,15.20
2015,07,18,05,20,15.20
2015,07,18,05,21,15.20
2015,07,18,05,22,15.20
2015,07,18,05,23,15.20
2015,07,18,05,24,15.20
2015,07,18,05,25,15.30
2015,07,18,05,26,15.30
2015,07,18,05,27,15.30
2015,07,18,05,28,15.30
2015,07,18,05,29,15.30
2015,07,18,05,30,15.30
2015,07,18,05,31,15.30
2015,07,18,05,32,15.30
2015,07,18,05,33,15.30
2015,07,18,05,34,15.30
2015,07,18,05,35,15.30
2015,07,18,05,36,15.30
2015,07,18,05,37,15.30
2015,07,18,05,38,15.30
2015,07,18,05,39,15.30
2015,07,18,05,40,15.30
2015,07,18,05,41,15.30
2015,07,18,05,42,15.30
2015,07,18,05,43,15.30
2015,07,18,05,44,15.30
2015,07,18,05,45,15.30
2015,07,18,05,46,15.30
2015,07,18,05,47,15.30
2015,07,18,05,48,15.30
2015,07,18,05,49,15.30
2015,07,18,05,50,15.30
2015,07,18,05,51,15.30
2015,07,18,05,52,15.30
2015,07,18,05,53,15.30
2015,07,18,05,54,15.30
2015,07,18,05,55,15.30
2015,07,18,05,56,15.30
2015,07,18,05,57,15.30
2015,07,18,05,58,15.30
2015,07,18,05,59,15.30
2015,07,18,06,00,15.30
2015,07,18,06,01,15.30
2015,07,18,06,02,15.30
2015,07,18,06,03,15.30
2015,07,18,06,04,15.30
2015,07,18,06,05,15.30
2015,07,18,06,06,15.30
2015,07,18,06,07,15.30
2015,07,18,06,08,15.30
2015,07,18,06,09,15.30
2015,07,18,06,10,15.30
2015,07,18,06,11,15.30
2015,07,18,06,12,15.30
2015,07,18,06,13,15.30
2015,07,18,06,14,15.40
2015,07,18,06,15,15.40
2015,07,18,06,16,15.50
2015,07,18,06,17,15.50
2015,07,18,06,18,15.50
2015,07,18,06,19,15.50
2015,07,18,06,20,15.50
2015,07,18,06,21,15.50
2015,07,18,06,22,15.50
2015,07,18,06,23,15.60
2015,07,18,06,24,15.60
2015,07,18,06,25,15.60
2015,07,18,06,26,15.60
2015,07,18,06,27,15.60
2015,07,18,06,28,15.60
2015,07,18,06,29,15.60
2015,07,18,06,30,15.60
2015,07,18,06,31,15.60
2015,07,18,06,32,15.60
2015,07,18,06,33,15.60
2015,07,18,06,34,15.70
2015,07,18,06,35,15.70
2015,07,18,06,36,15.70
2015,07,18,06,37,15.70
2015,07,18,06,38,15.80
2015,07,18,06,39,15.80
2015,07,18,06,40,15.80
2015,07,18,06,41,15.80
2015,07,18,06,42,15.80
2015,07,18,06,43,15.80
2015,07,18,06,44,15.90
2015,07,18,06,45,15.90
2015,07,18,06,46,16.00
2015,07,18,06,47,16.10
2015,07,18,06,48,16.00
2015,07,18,06,49,15.90
2015,07,18,06,50,15.90
2015,07,18,06,51,15.90
2015,07,18,06,52,15.90
2015,07,18,06,53,15.90
2015,07,18,06,54,15.90
2015,07,18,06,55,15.90
2015,07,18,06,56,16.00
2015,07,18,06,57,16.10
2015,07,18,06,58,16.10
2015,07,18,06,59,16.10
2015,07,18,07,00,16.10
2015,07,18,07,01,16.20
2015,07,18,07,02,16.20
2015,07,18,07,03,16.20
2015,07,18,07,04,16.30
2015,07,18,07,05,16.30
2015,07,18,07,06,16.40
2015,07,18,07,07,16.40
2015,07,18,07,08,16.40
2015,07,18,07,09,16.50
2015,07,18,07,10,16.60
2015,07,18,07,11,16.60
2015,07,18,07,12,16.70
2015,07,18,07,13,16.70
2015,07,18,07,14,16.80
2015,07,18,07,15,16.90
2015,07,18,07,16,17.00
2015,07,18,07,17,17.20
2015,07,18,07,18,17.20
2015,07,18,07,19,17.30
2015,07,18,07,20,17.20
2015,07,18,07,21,17.10
2015,07,18,07,22,17.10
2015,07,18,07,23,17.00
2015,07,18,07,24,17.00
2015,07,18,07,25,17.00
2015,07,18,07,26,16.90
2015,07,18,07,27,16.90
2015,07,18,07,28,16.90
2015,07,18,07,29,16.90
2015,07,18,07,30,16.90
2015,07,18,07,31,16.90
2015,07,18,07,32,16.90
2015,07,18,07,33,16.90
2015,07,18,07,34,16.90
2015,07,18,07,35,16.90
2015,07,18,07,36,17.00
2015,07,18,07,37,17.00
2015,07,18,07,38,17.00
2015,07,18,07,39,17.10
2015,07,18,07,40,17.20
2015,07,18,07,41,17.30
2015,07,18,07,42,17.30
2015,07,18,07,43,17.40
2015,07,18,07,44,17.50
2015,07,18,07,45,17.70
2015,07,18,07,46,17.80
2015,07,18,07,47,17.90
2015,07,18,07,48,18.00
2015,07,18,07,49,18.20
2015,07,18,07,50,18.30
2015,07,18,07,51,18.40
2015,07,18,07,52,18.50
2015,07,18,07,53,18.60
2015,07,18,07,54,18.60
2015,07,18,07,55,18.50
2015,07,18,07,56,18.50
2015,07,18,07,57,18.40
2015,07,18,07,58,18.50
2015,07,18,07,59,18.50
2015,07,18,08,00,18.60
2015,07,18,08,01,18.60
2015,07,18,08,02,18.70
2015,07,18,08,03,18.70
2015,07,18,08,04,18.80
2015,07,18,08,05,18.80
2015,07,18,08,06,18.90
2015,07,18,08,07,18.90
2015,07,18,08,08,19.00
2015,07,18,08,09,19.10
2015,07,18,08,10,19.20
2015,07,18,08,11,19.30
2015,07,18,08,12,19.40
2015,07,18,08,13,19.50
2015,07,18,08,14,19.60
2015,07,18,08,15,19.60
2015,07,18,08,16,19.70
2015,07,18,08,17,19.70
2015,07,18,08,18,19.80
2015,07,18,08,19,19.70
2015,07,18,08,20,19.70
2015,07,18,08,21,19.70
2015,07,18,08,22,19.80
2015,07,18,08,23,19.80
2015,07,18,08,24,19.80
2015,07,18,08,25,19.90
2015,07,18,08,26,20.00
2015,07,18,08,27,20.20
2015,07,18,08,28,20.20
2015,07,18,08,29,20.30
2015,07,18,08,30,20.40
2015,07,18,08,31,20.50
2015,07,18,08,32,20.50
2015,07,18,08,33,20.60
2015,07,18,08,34,20.60
2015,07,18,08,35,20.50
2015,07,18,08,36,20.30
2015,07,18,08,37,20.10
2015,07,18,08,38,19.90
2015,07,18,08,39,19.80
2015,07,18,08,40,19.70
2015,07,18,08,41,19.70
2015,07,18,08,42,19.80
2015,07,18,08,43,19.80
2015,07,18,08,44,19.90
2015,07,18,08,45,20.00
2015,07,18,08,46,20.10
2015,07,18,08,47,20.20
2015,07,18,08,48,20.30
2015,07,18,08,49,20.50
2015,07,18,08,50,20.60
2015,07,18,08,51,20.80
2015,07,18,08,52,20.90
2015,07,18,08,53,21.00
2015,07,18,08,54,21.20
2015,07,18,08,55,21.30
2015,07,18,08,56,21.40
2015,07,18,08,57,21.60
2015,07,18,08,58,21.60
2015,07,18,08,59,21.50
2015,07,18,09,00,21.40
2015,07,18,09,01,21.40
2015,07,18,09,02,21.50
2015,07,18,09,03,21.60
2015,07,18,09,04,21.60
2015,07,18,09,05,21.70
2015,07,18,09,06,21.80
2015,07,18,09,07,22.00
2015,07,18,09,08,21.90
2015,07,18,09,09,21.40
2015,07,18,09,10,21.00
2015,07,18,09,11,20.70
2015,07,18,09,12,20.50
2015,07,18,09,13,20.40
2015,07,18,09,14,20.30
2015,07,18,09,15,20.20
2015,07,18,09,16,20.10
2015,07,18,09,17,20.10
2015,07,18,09,18,20.20
2015,07,18,09,19,20.20
2015,07,18,09,20,20.30
2015,07,18,09,21,20.40
2015,07,18,09,22,20.60
2015,07,18,09,23,20.70
2015,07,18,09,24,20.90
2015,07,18,09,25,21.00
2015,07,18,09,26,21.10
2015,07,18,09,27,21.30
2015,07,18,09,28,21.40
2015,07,18,09,29,21.60
2015,07,18,09,30,21.70
2015,07,18,09,31,21.80
2015,07,18,09,32,21.90
2015,07,18,09,33,22.00
2015,07,18,09,34,22.10
2015,07,18,09,35,22.30
2015,07,18,09,36,22.40
2015,07,18,09,37,22.40
2015,07,18,09,38,22.40
2015,07,18,09,39,22.40
2015,07,18,09,40,22.40
2015,07,18,09,41,22.50
2015,07,18,09,42,22.60
2015,07,18,09,43,22.70
2015,07,18,09,44,22.80
2015,07,18,09,45,22.80
2015,07,18,09,46,22.90
2015,07,18,09,47,22.90
2015,07,18,09,48,23.00
2015,07,18,09,49,23.10
2015,07,18,09,50,23.20
2015,07,18,09,51,23.30
2015,07,18,09,52,23.30
2015,07,18,09,53,23.10
2015,07,18,09,54,22.90
2015,07,18,09,55,22.60
2015,07,18,09,56,22.20
2015,07,18,09,57,21.80
2015,07,18,09,58,21.40
2015,07,18,09,59,21.10
2015,07,18,10,00,20.80
2015,07,18,10,01,20.60
2015,07,18,10,02,20.50
2015,07,18,10,03,20.50
2015,07,18,10,04,20.40
2015,07,18,10,05,20.50
2015,07,18,10,06,20.50
2015,07,18,10,07,20.60
2015,07,18,10,08,20.70
2015,07,18,10,09,20.80
2015,07,18,10,10,20.80
2015,07,18,10,11,20.90
2015,07,18,10,12,21.00
2015,07,18,10,13,21.10
2015,07,18,10,14,21.30
2015,07,18,10,15,21.50
2015,07,18,10,16,21.70
2015,07,18,10,17,21.80
2015,07,18,10,18,22.00
2015,07,18,10,19,22.00
2015,07,18,10,20,22.10
2015,07,18,10,21,22.10
2015,07,18,10,22,22.20
2015,07,18,10,23,22.30
2015,07,18,10,24,22.30
2015,07,18,10,25,22.30
2015,07,18,10,26,22.30
2015,07,18,10,27,22.40
2015,07,18,10,28,22.50
2015,07,18,10,29,22.70
2015,07,18,10,30,22.90
2015,07,18,10,31,22.90
2015,07,18,10,32,22.90
2015,07,18,10,33,22.90
2015,07,18,10,34,22.90
2015,07,18,10,35,22.90
2015,07,18,10,36,23.00
2015,07,18,10,37,23.10
2015,07,18,10,38,23.10
2015,07,18,10,39,23.20
2015,07,18,10,40,23.30
2015,07,18,10,41,23.30
2015,07,18,10,42,23.30
2015,07,18,10,43,23.30
2015,07,18,10,44,23.30
2015,07,18,10,45,23.30
2015,07,18,10,46,23.30
2015,07,18,10,47,23.30
2015,07,18,10,48,23.20
2015,07,18,10,49,22.90
2015,07,18,10,50,22.70
2015,07,18,10,51,22.30
2015,07,18,10,52,22.10
2015,07,18,10,53,22.00
2015,07,18,10,54,22.00
2015,07,18,10,55,22.10
2015,07,18,10,56,22.00
2015,07,18,10,57,22.00
2015,07,18,10,58,22.00
2015,07,18,10,59,22.00
2015,07,18,11,00,22.00
2015,07,18,11,01,22.00
2015,07,18,11,02,22.00
2015,07,18,11,03,22.00
2015,07,18,11,04,22.10
2015,07,18,11,05,22.00
2015,07,18,11,06,21.90
2015,07,18,11,07,21.90
2015,07,18,11,08,21.90
2015,07,18,11,09,21.90
2015,07,18,11,10,21.80
2015,07,18,11,11,21.90
2015,07,18,11,12,21.90
2015,07,18,11,13,22.00
2015,07,18,11,14,22.00
2015,07,18,11,15,22.10
2015,07,18,11,16,22.20
2015,07,18,11,17,22.30
2015,07,18,11,18,22.40
2015,07,18,11,19,22.30
2015,07,18,11,20,22.10
2015,07,18,11,21,22.00
2015,07,18,11,22,22.00
2015,07,18,11,23,22.00
2015,07,18,11,24,22.10
2015,07,18,11,25,22.10
2015,07,18,11,26,22.10
2015,07,18,11,27,22.20
2015,07,18,11,28,22.30
2015,07,18,11,29,22.40
2015,07,18,11,30,22.50
2015,07,18,11,31,22.60
2015,07,18,11,32,22.60
2015,07,18,11,33,22.40
2015,07,18,11,34,22.30
2015,07,18,11,35,22.30
2015,07,18,11,36,22.20
2015,07,18,11,37,22.10
2015,07,18,11,38,22.10
2015,07,18,11,39,22.20
2015,07,18,11,40,22.20
2015,07,18,11,41,22.20
2015,07,18,11,42,22.20
2015,07,18,11,43,22.10
2015,07,18,11,44,22.00
2015,07,18,11,45,22.10
2015,07,18,11,46,22.00
2015,07,18,11,47,22.10
2015,07,18,11,48,22.10
2015,07,18,11,49,22.20
2015,07,18,11,50,22.20
2015,07,18,11,51,22.20
2015,07,18,11,52,22.30
2015,07,18,11,53,22.40
2015,07,18,11,54,22.50
2015,07,18,11,55,22.50
2015,07,18,11,56,22.60
2015,07,18,11,57,22.70
2015,07,18,11,58,22.80
2015,07,18,11,59,22.90
2015,07,18,12,00,23.00
2015,07,18,12,01,23.10
2015,07,18,12,02,23.10
2015,07,18,12,03,23.20
2015,07,18,12,04,23.20
2015,07,18,12,05,23.30
2015,07,18,12,06,23.30
2015,07,18,12,07,23.30
2015,07,18,12,08,23.40
2015,07,18,12,09,23.40
2015,07,18,12,10,23.40
2015,07,18,12,11,23.40
2015,07,18,12,12,23.40
2015,07,18,12,13,23.30
2015,07,18,12,14,23.30
2015,07,18,12,15,23.30
2015,07,18,12,16,23.30
2015,07,18,12,17,23.30
2015,07,18,12,18,23.30
2015,07,18,12,19,23.30
2015,07,18,12,20,23.50
2015,07,18,12,21,23.60
2015,07,18,12,22,23.70
2015,07,18,12,23,23.70
2015,07,18,12,24,23.60
2015,07,18,12,25,23.60
2015,07,18,12,26,23.60
2015,07,18,12,27,23.60
2015,07,18,12,28,23.60
2015,07,18,12,29,23.70
2015,07,18,12,30,23.70
2015,07,18,12,31,23.70
2015,07,18,12,32,23.70
2015,07,18,12,33,23.70
2015,07,18,12,34,23.70
2015,07,18,12,35,23.80
2015,07,18,12,36,23.80
2015,07,18,12,37,23.90
2015,07,18,12,38,24.00
2015,07,18,12,39,24.10
2015,07,18,12,40,24.10
2015,07,18,12,41,24.10
2015,07,18,12,42,24.20
2015,07,18,12,43,24.20
2015,07,18,12,44,24.20
2015,07,18,12,45,24.20
2015,07,18,12,46,24.20
2015,07,18,12,47,24.30
2015,07,18,12,48,24.20
2015,07,18,12,49,24.10
2015,07,18,12,50,24.20
2015,07,18,12,51,24.10
2015,07,18,12,52,24.00
2015,07,18,12,53,23.90
2015,07,18,12,54,23.80
2015,07,18,12,55,23.90
2015,07,18,12,56,23.90
2015,07,18,12,57,23.90
2015,07,18,12,58,23.80
2015,07,18,12,59,23.80
2015,07,18,13,00,23.80
2015,07,18,13,01,23.70
2015,07,18,13,02,23.70
2015,07,18,13,03,23.60
2015,07,18,13,04,23.60
2015,07,18,13,05,23.60
2015,07,18,13,06,23.50
2015,07,18,13,07,23.40
2015,07,18,13,08,23.40
2015,07,18,13,09,23.40
2015,07,18,13,10,23.40
2015,07,18,13,11,23.40
2015,07,18,13,12,23.50
2015,07,18,13,13,23.60
2015,07,18,13,14,23.60
2015,07,18,13,15,23.70
2015,07,18,13,16,23.70
2015,07,18,13,17,23.80
2015,07,18,13,18,23.90
2015,07,18,13,19,23.90
2015,07,18,13,20,24.00
2015,07,18,13,21,24.00
2015,07,18,13,22,24.00
2015,07,18,13,23,24.10
2015,07,18,13,24,24.10
2015,07,18,13,25,24.10
2015,07,18,13,26,24.00
2015,07,18,13,27,23.90
2015,07,18,13,28,23.80
2015,07,18,13,29,23.70
2015,07,18,13,30,23.70
2015,07,18,13,31,23.70
2015,07,18,13,32,23.70
2015,07,18,13,33,23.70
2015,07,18,13,34,23.70
2015,07,18,13,35,23.60
2015,07,18,13,36,23.60
2015,07,18,13,37,23.60
2015,07,18,13,38,23.70
2015,07,18,13,39,23.70
2015,07,18,13,40,23.70
2015,07,18,13,41,23.90
2015,07,18,13,42,24.00
2015,07,18,13,43,24.10
2015,07,18,13,44,24.10
2015,07,18,13,45,24.20
2015,07,18,13,46,24.20
2015,07,18,13,47,24.30
2015,07,18,13,48,24.30
2015,07,18,13,49,24.30
2015,07,18,13,50,24.40
2015,07,18,13,51,24.40
2015,07,18,13,52,24.40
2015,07,18,13,53,24.40
2015,07,18,13,54,24.40
2015,07,18,13,55,24.40
2015,07,18,13,56,24.30
2015,07,18,13,57,24.30
2015,07,18,13,58,24.20
2015,07,18,13,59,24.10
2015,07,18,14,00,24.10
2015,07,18,14,01,24.10
2015,07,18,14,02,24.10
2015,07,18,14,03,24.20
2015,07,18,14,04,24.30
2015,07,18,14,05,24.30
2015,07,18,14,06,24.30
2015,07,18,14,07,24.20
2015,07,18,14,08,24.20
2015,07,18,14,09,24.20
2015,07,18,14,10,24.20
2015,07,18,14,11,24.10
2015,07,18,14,12,24.10
2015,07,18,14,13,24.10
2015,07,18,14,14,24.20
2015,07,18,14,15,24.20
2015,07,18,14,16,24.20
2015,07,18,14,17,24.20
2015,07,18,14,18,24.20
2015,07,18,14,19,24.20
2015,07,18,14,20,24.10
2015,07,18,14,21,24.10
2015,07,18,14,22,24.00
2015,07,18,14,23,23.90
2015,07,18,14,24,23.90
2015,07,18,14,25,23.90
2015,07,18,14,26,23.80
2015,07,18,14,27,23.70
2015,07,18,14,28,23.70
2015,07,18,14,29,23.70
2015,07,18,14,30,23.70
2015,07,18,14,31,23.70
2015,07,18,14,32,23.70
2015,07,18,14,33,23.80
2015,07,18,14,34,23.90
2015,07,18,14,35,23.90
2015,07,18,14,36,24.10
2015,07,18,14,37,24.10
2015,07,18,14,38,24.20
2015,07,18,14,39,24.30
2015,07,18,14,40,24.40
2015,07,18,14,41,24.40
2015,07,18,14,42,24.40
2015,07,18,14,43,24.50
2015,07,18,14,44,24.60
2015,07,18,14,45,24.60
2015,07,18,14,46,24.70
2015,07,18,14,47,24.80
2015,07,18,14,48,24.80
2015,07,18,14,49,24.70
2015,07,18,14,50,24.80
2015,07,18,14,51,24.80
2015,07,18,14,52,24.80
2015,07,18,14,53,24.90
2015,07,18,14,54,25.00
2015,07,18,14,55,25.00
2015,07,18,14,56,25.00
2015,07,18,14,57,25.00
2015,07,18,14,58,24.90
2015,07,18,14,59,24.90
2015,07,18,15,00,24.90
2015,07,18,15,01,24.90
2015,07,18,15,02,24.80
2015,07,18,15,03,24.80
2015,07,18,15,04,24.90
2015,07,18,15,05,24.90
2015,07,18,15,06,24.90
2015,07,18,15,07,24.90
2015,07,18,15,08,25.00
2015,07,18,15,09,25.00
2015,07,18,15,10,25.10
2015,07,18,15,11,25.10
2015,07,18,15,12,25.30
2015,07,18,15,13,25.30
2015,07,18,15,14,25.20
2015,07,18,15,15,25.20
2015,07,18,15,16,25.20
2015,07,18,15,17,25.20
2015,07,18,15,18,25.20
2015,07,18,15,19,25.20
2015,07,18,15,20,25.20
2015,07,18,15,21,25.10
2015,07,18,15,22,25.10
2015,07,18,15,23,25.10
2015,07,18,15,24,25.10
2015,07,18,15,25,25.20
2015,07,18,15,26,25.20
2015,07,18,15,27,25.30
2015,07,18,15,28,25.40
2015,07,18,15,29,25.60
2015,07,18,15,30,25.60
2015,07,18,15,31,25.60
2015,07,18,15,32,25.70
2015,07,18,15,33,25.70
2015,07,18,15,34,25.70
2015,07,18,15,35,25.70
2015,07,18,15,36,25.70
2015,07,18,15,37,25.80
2015,07,18,15,38,25.80
2015,07,18,15,39,25.80
2015,07,18,15,40,25.70
2015,07,18,15,41,25.60
2015,07,18,15,42,25.50
2015,07,18,15,43,25.50
2015,07,18,15,44,25.50
2015,07,18,15,45,25.40
2015,07,18,15,46,25.40
2015,07,18,15,47,25.30
2015,07,18,15,48,25.30
2015,07,18,15,49,25.30
2015,07,18,15,50,25.30
2015,07,18,15,51,25.30
2015,07,18,15,52,25.40
2015,07,18,15,53,25.40
2015,07,18,15,54,25.40
2015,07,18,15,55,25.40
2015,07,18,15,56,25.40
2015,07,18,15,57,25.40
2015,07,18,15,58,25.50
2015,07,18,15,59,25.50
2015,07,18,16,00,25.60
2015,07,18,16,01,25.60
2015,07,18,16,02,25.70
2015,07,18,16,03,25.80
2015,07,18,16,04,25.80
2015,07,18,16,05,25.90
2015,07,18,16,06,25.90
2015,07,18,16,07,26.00
2015,07,18,16,08,26.10
2015,07,18,16,09,26.10
2015,07,18,16,10,26.10
2015,07,18,16,11,26.20
2015,07,18,16,12,26.30
2015,07,18,16,13,26.40
2015,07,18,16,14,26.60
2015,07,18,16,15,26.70
2015,07,18,16,16,26.70
2015,07,18,16,17,26.80
2015,07,18,16,18,26.90
2015,07,18,16,19,27.10
2015,07,18,16,20,27.20
2015,07,18,16,21,27.30
2015,07,18,16,22,27.30
2015,07,18,16,23,27.30
2015,07,18,16,24,27.30
2015,07,18,16,25,27.30
2015,07,18,16,26,27.40
2015,07,18,16,27,27.50
2015,07,18,16,28,27.60
2015,07,18,16,29,27.60
2015,07,18,16,30,27.60
2015,07,18,16,31,27.60
2015,07,18,16,32,27.60
2015,07,18,16,33,27.50
2015,07,18,16,34,27.40
2015,07,18,16,35,27.30
2015,07,18,16,36,27.30
2015,07,18,16,37,27.30
2015,07,18,16,38,27.40
2015,07,18,16,39,27.40
2015,07,18,16,40,27.50
2015,07,18,16,41,27.60
2015,07,18,16,42,27.70
2015,07,18,16,43,27.70
2015,07,18,16,44,27.80
2015,07,18,16,45,27.80
2015,07,18,16,46,27.90
2015,07,18,16,47,28.10
2015,07,18,16,48,28.10
2015,07,18,16,49,28.20
2015,07,18,16,50,28.30
2015,07,18,16,51,28.30
2015,07,18,16,52,28.30
2015,07,18,16,53,28.20
2015,07,18,16,54,28.20
2015,07,18,16,55,28.20
2015,07,18,16,56,28.10
2015,07,18,16,57,28.10
2015,07,18,16,58,28.00
2015,07,18,16,59,27.90
2015,07,18,17,00,27.80
2015,07,18,17,01,27.60
2015,07,18,17,02,27.50
2015,07,18,17,03,27.40
2015,07,18,17,04,27.40
2015,07,18,17,05,27.30
2015,07,18,17,06,27.30
2015,07,18,17,07,27.30
2015,07,18,17,08,27.30
2015,07,18,17,09,27.30
2015,07,18,17,10,27.30
2015,07,18,17,11,27.30
2015,07,18,17,12,27.30
2015,07,18,17,13,27.40
2015,07,18,17,14,27.50
2015,07,18,17,15,27.60
2015,07,18,17,16,27.70
2015,07,18,17,17,27.80
2015,07,18,17,18,27.90
2015,07,18,17,19,28.00